Location: ????????
(55.4000°N, 39.1167°E)
Time: 06:46:35
(UTC+00:00)

ADEOS II - Pass Details

Date: 19 May 2025
Orbit: 793 x 796 km, 98.7° (Epoch: 15 June)

Event Time Altitude Azimuth Distance (km) Brightness Sun altitude
Rises 23:38:08 0° 19° (NNE) 3,311 7.2 -9.1°
Reaches altitude 10° 23:40:35 10° 26° (NNE) 2,376 6.2 -8.9°
Maximum altitude 23:45:35 43° 98° (E) 1,111 3.1 -8.5°
Drops below altitude 10° 23:50:32 10° 170° (S) 2,359 4.1 -8.1°
Enters shadow 23:52:33 - 176° (S) 3,123 4.7 -8.0°
